{"data":{"norad_id":52657,"intl_designator":"2022-053B","name":"STARLINK-4084","alt_names":[],"object_type":"PAYLOAD","status":"ACTIVE","operator":null,"country":"US","launch_date":"2022-05-18","launch_site_code":"AFETR","launch_vehicle":null,"mission":null,"orbit_class":"UNKNOWN","rcs_meters":null,"size_class":null,"mass_kg":null,"dimensions":null,"purposes":["comms"],"wikipedia_slug":null,"has_3d_model":false,"image_url":null,"decayed_at":null,"tle_current":{"epoch":"2026-05-25T02:29:30.848064Z","epoch_age_seconds":63325,"freshness":"FRESH","line1":"1 52657U 22053B   26145.10382926 -.00000051  00000+0  14875-4 0  9991","line2":"2 52657  53.2127 171.4024 0001001  91.3271 268.7836 15.08831627222941","mean_motion":15.08831627,"eccentricity":0.0001001,"inclination_deg":53.2127,"raan_deg":171.4024,"arg_perigee_deg":91.3271,"mean_anomaly_deg":268.7836,"bstar":1.4875e-5,"rev_number":22294,"period_min":95.438084291959,"perigee_km":539.07649960499,"apogee_km":540.46146438258,"semimajor_km":6917.9059819938,"source":"CELESTRAK","updated_at":"2026-05-25T13:38:17.209077Z"}}}